Weather History for Avoca, PA

Change the Weather History Date:

Wednesday, July 17, 2013

  Actual Average Record
Temperature  
Mean Temperature 81 °F 72 °F  
Max Temperature 94 °F 82 °F 97 °F (2012)
Min Temperature 68 °F 61 °F 47 °F (1974)
Degree Days  
Heating Degree Days 0 0  
Month to date heating degree days 0 0  
Since 1 June heating degree days 21 54  
Since 1 July heating degree days 0 0  
Cooling Degree Days 16 7  
Month to date cooling degree days 210 114  
Year to date cooling degree days 410 268  
Since 1 June cooling degree days 346 231  
Growing Degree Days 30 (Base 50)    
Moisture  
Dew Point 66 °F    
Average Humidity 60    
Maximum Humidity 90    
Minimum Humidity 30    
Precipitation  
Precipitation T in 0.12 in 1.07 in (1911)
Month to date precipitation 0.71 2.00  
Year to date precipitation 15.89 19.83  
Sea Level Pressure  
Sea Level Pressure 30.17 in    
Wind  
Wind Speed 3 mph (SSE)    
Max Wind Speed 9 mph    
Max Gust Speed 13 mph    
Visibility 9 miles    
Events      
T = Trace of Precipitation, MM = Missing Value Source: NWS Daily Summary

Daily Weather History Graph

Daily Weather History Graph

Search for Another Location

Airport:

Trip Planner

Search our weather history database for the weather conditions in past years. The results will help you decide how hot, cold, wet, or windy it might be!

Date:

Astronomy

Jul. 17, 2013 Rise Set
Actual Time 5:44 AM EDT 8:33 PM EDT
Civil Twilight 5:11 AM EDT 9:05 PM EDT
Nautical Twilight 4:30 AM EDT 9:46 PM EDT
Astronomical Twilight 3:43 AM EDT 10:33 PM EDT
Moon 3:18 PM EDT (7/17) 12:51 AM EDT (7/17)
Length of Visible Light 15h 53m
Length of Day
14h 48m
Waxing Gibbous, 67% of the Moon is Illuminated
Jul 17
Waxing Gibbous
Jul 22
Full
Jul 29
Last Quarter
Aug 6
New
Aug 14
First Quarter

Hourly Weather History & Observations

Time (EDT) Temp. Heat Index Dew Point Humidity Pressure Visibility Wind Dir Wind Speed Gust Speed Precip Events Conditions
12:54 AM 72.0 °F - 66.0 °F 81% 30.22 in 9.0 mi Calm Calm - N/A   Clear
1:54 AM 71.1 °F - 66.0 °F 84% 30.21 in 9.0 mi ESE 3.5 mph - N/A   Clear
2:54 AM 70.0 °F - 66.0 °F 87% 30.20 in 8.0 mi ESE 3.5 mph - N/A   Clear
3:54 AM 69.1 °F - 64.9 °F 87% 30.21 in 8.0 mi ESE 3.5 mph - N/A   Clear
4:54 AM 68.0 °F - 64.9 °F 90% 30.22 in 8.0 mi ESE 3.5 mph - N/A   Clear
5:54 AM 68.0 °F - 64.0 °F 87% 30.23 in 6.0 mi ESE 4.6 mph - N/A   Clear
6:54 AM 69.1 °F - 64.9 °F 87% 30.25 in 7.0 mi ESE 4.6 mph - N/A   Clear
7:54 AM 73.0 °F - 66.0 °F 79% 30.25 in 8.0 mi Calm Calm - N/A   Clear
8:54 AM 78.1 °F - 68.0 °F 71% 30.26 in 8.0 mi Calm Calm - N/A   Clear
9:54 AM 80.1 °F 82.3 °F 66.9 °F 64% 30.25 in 9.0 mi Calm Calm - N/A   Clear
10:54 AM 84.0 °F 86.5 °F 66.9 °F 56% 30.23 in 10.0 mi NNW 3.5 mph - N/A   Clear
11:54 AM 86.0 °F 88.2 °F 66.0 °F 51% 30.21 in 10.0 mi Variable 3.5 mph - N/A   Clear
12:54 PM 90.0 °F 91.3 °F 64.0 °F 42% 30.20 in 10.0 mi Calm Calm - N/A   Clear
1:54 PM 91.0 °F 91.5 °F 62.1 °F 38% 30.19 in 10.0 mi Variable 3.5 mph - N/A   Clear
2:54 PM 91.9 °F 90.3 °F 55.9 °F 30% 30.16 in 10.0 mi Variable 5.8 mph - N/A   Clear
3:54 PM 91.9 °F 91.5 °F 60.1 °F 34% 30.14 in 10.0 mi WNW 5.8 mph - N/A   Clear
4:54 PM 93.0 °F 94.6 °F 64.0 °F 38% 30.12 in 10.0 mi Variable 4.6 mph - N/A   Clear
5:54 PM 91.9 °F 94.1 °F 64.9 °F 41% 30.10 in 10.0 mi WNW 5.8 mph - N/A   Clear
6:54 PM 91.0 °F 94.3 °F 66.9 °F 45% 30.09 in 10.0 mi WNW 6.9 mph - N/A   Clear
7:54 PM 88.0 °F 91.4 °F 68.0 °F 51% 30.08 in 10.0 mi WSW 8.1 mph - N/A   Clear
8:54 PM 82.9 °F 86.5 °F 69.1 °F 63% 30.09 in 10.0 mi Calm Calm - N/A   Clear
9:54 PM 82.0 °F 85.5 °F 69.1 °F 65% 30.11 in 10.0 mi SSW 3.5 mph - N/A   Clear
10:54 PM 82.0 °F 85.9 °F 70.0 °F 67% 30.09 in 9.0 mi Calm Calm - N/A   Mostly Cloudy
11:54 PM 82.0 °F 85.9 °F 70.0 °F 67% 30.09 in 9.0 mi Calm Calm - 0.00 in   Partly Cloudy